Albuquerque Double Eagle, NM

6:16 AM MDT on May 26, 2018 (GMT -0600)
Double Eagle Ii

Weather History for KAEG - December, 2013

Change the Weather History Date:

Friday, December 13, 2013

  Actual Average (WUND) Record (WUND)
Temperature  
Mean Temperature 34 °F -  
Max Temperature 44 °F - - (-1)
Min Temperature 24 °F - - (-1)
Degree Days  
Heating Degree Days 31    
Moisture  
Dew Point 22 °F    
Average Humidity 68    
Maximum Humidity 80    
Minimum Humidity 53    
Precipitation  
Precipitation 0.00 in - - ()
Sea Level Pressure  
Sea Level Pressure 30.06 in    
Wind  
Wind Speed 5 mph (WNW)    
Max Wind Speed 25 mph    
Max Gust Speed 30 mph    
Visibility 10 miles    
Events      
Averages and records for this station are not official NWS values.
T = Trace of Precipitation, MM = Missing Value Source: NWS Daily Summary

Daily Weather History Graph

Daily Weather History Graph

Search for Another Location

Airport or City:

Astronomy

Dec. 13, 2013 Rise Set
Actual Time 7:07 AM MST 4:56 PM MST
Civil Twilight 6:38 AM MST 5:24 PM MST
Nautical Twilight 6:07 AM MST 5:55 PM MST
Astronomical Twilight 5:36 AM MST 6:26 PM MST
Moon 2:35 PM MST (12/13) 3:38 AM MST (12/13)
Length of Visible Light 10h 45m
Length of Day
9h 49m
Waxing Gibbous, 88% of the Moon is Illuminated
Dec 13
Waxing Gibbous
Dec 17
Full
Dec 25
Last Quarter
Jan 1
New
Jan 7
First Quarter

Hourly Weather History & Observations

Time (MST) Temp. Windchill Dew Point Humidity Pressure Visibility Wind Dir Wind Speed Gust Speed Precip Events Conditions
12:15 AM 24.4 °F 18.6 °F 17.2 °F 74% 30.12 in 10.0 mi WNW 4.6 mph - N/A   Scattered Clouds
12:35 AM 25.2 °F - 16.7 °F 70% 30.12 in 10.0 mi Calm Calm - N/A   Scattered Clouds
12:55 AM 24.8 °F 20.5 °F 16.7 °F 71% 30.10 in 10.0 mi West 3.5 mph - N/A   Overcast
1:15 AM 27.1 °F 20.7 °F 18.9 °F 71% 30.10 in 10.0 mi West 5.8 mph - N/A   Overcast
1:35 AM 28.8 °F 23.7 °F 18.7 °F 66% 30.09 in 10.0 mi West 4.6 mph - N/A   Overcast
1:55 AM 29.7 °F 26.1 °F 19.0 °F 65% 30.09 in 10.0 mi West 3.5 mph - N/A   Overcast
2:15 AM 29.3 °F - 20.1 °F 69% 30.09 in 10.0 mi Calm Calm - N/A   Overcast
2:35 AM 30.0 °F - 20.8 °F 69% 30.08 in 10.0 mi Calm Calm - N/A   Overcast
2:55 AM 30.2 °F - 21.2 °F 69% 30.07 in 10.0 mi Calm Calm - N/A   Overcast
3:15 AM 30.7 °F - 20.5 °F 66% 30.06 in 10.0 mi Calm Calm - N/A   Overcast
3:35 AM 30.0 °F - 21.0 °F 69% 30.06 in 10.0 mi Calm Calm - N/A   Overcast
3:55 AM 30.0 °F - 21.6 °F 71% 30.06 in 10.0 mi Calm Calm - N/A   Overcast
4:15 AM 30.0 °F - 21.6 °F 71% 30.04 in 10.0 mi Calm Calm - N/A   Overcast
4:35 AM 30.6 °F 27.1 °F 19.4 °F 63% 30.04 in 10.0 mi WNW 3.5 mph - N/A   Overcast
5:48 AM 28.4 °F 20.4 °F 21.2 °F 74% 30.03 in 10.0 mi South 8.1 mph - N/A   Overcast
6:04 AM 28.4 °F 22.2 °F 21.2 °F 74% 30.03 in 10.0 mi SSE 5.8 mph - N/A   Overcast
6:48 AM 26.6 °F 22.6 °F 21.2 °F 80% 30.03 in 10.0 mi SSW 3.5 mph - N/A   Mostly Cloudy
7:50 AM 28.4 °F 24.6 °F 21.2 °F 74% 30.02 in 10.0 mi SSW 3.5 mph - N/A   Mostly Cloudy
8:50 AM 32.0 °F - 19.4 °F 60% 30.03 in 10.0 mi Calm Calm - N/A   Overcast
9:50 AM 35.6 °F 32.8 °F 26.6 °F 70% 30.03 in 10.0 mi NNW 3.5 mph - N/A   Mostly Cloudy
10:50 AM 35.6 °F 32.8 °F 28.4 °F 75% 30.04 in 10.0 mi SSW 3.5 mph - N/A   Mostly Cloudy
11:50 AM 41.0 °F 39.0 °F 28.4 °F 61% 30.02 in 10.0 mi SSW 3.5 mph - N/A   Mostly Cloudy
12:50 PM 44.6 °F 37.2 °F 28.4 °F 53% 29.99 in 10.0 mi WNW 17.3 mph - N/A   Scattered Clouds
1:50 PM 44.6 °F 36.6 °F 28.4 °F 53% 29.97 in 10.0 mi WNW 19.6 mph 26.5 mph N/A   Scattered Clouds
2:48 PM 44.6 °F 35.5 °F 28.4 °F 53% 29.98 in 10.0 mi WNW 25.3 mph 29.9 mph N/A   Scattered Clouds
3:50 PM 42.8 °F 34.8 °F 28.4 °F 57% 29.98 in 10.0 mi WNW 17.3 mph 23.0 mph N/A   Scattered Clouds
4:50 PM 39.2 °F 35.0 °F 26.6 °F 61% 29.99 in 10.0 mi NW 5.8 mph - N/A   Scattered Clouds
5:50 PM 33.8 °F 26.4 °F 24.8 °F 70% 30.00 in 10.0 mi NNW 9.2 mph - N/A   Partly Cloudy
6:50 PM 28.4 °F 21.2 °F 23.0 °F 80% 30.03 in 10.0 mi North 6.9 mph - N/A   Clear
7:49 PM 28.4 °F 19.7 °F 21.2 °F 74% 30.06 in 10.0 mi NNE 9.2 mph - N/A   Clear
8:49 PM 30.2 °F 20.2 °F 21.2 °F 69% 30.07 in 10.0 mi NNW 12.7 mph - N/A   Clear
9:15 PM 30.9 °F 20.7 °F 21.2 °F 67% 30.07 in 10.0 mi NNW 13.8 mph - N/A   Clear
9:35 PM 30.2 °F 18.9 °F 21.0 °F 69% 30.07 in 10.0 mi NNW 16.1 mph - N/A   Clear
9:55 PM 30.9 °F 21.2 °F 21.2 °F 67% 30.08 in 10.0 mi North 12.7 mph - N/A   Clear
10:15 PM 29.8 °F 20.3 °F 20.7 °F 69% 30.09 in 10.0 mi North 11.5 mph - N/A   Clear
10:35 PM 30.2 °F 20.8 °F 20.1 °F 66% 30.09 in 10.0 mi North 11.5 mph - N/A   Clear
10:55 PM 30.7 °F 23.3 °F 20.3 °F 65% 30.10 in 10.0 mi NW 8.1 mph - N/A   Clear
11:15 PM 30.4 °F 22.2 °F 20.3 °F 66% 30.11 in 10.0 mi NW 9.2 mph - N/A   Clear
11:35 PM 29.8 °F 23.0 °F 20.3 °F 68% 30.11 in 10.0 mi NW 6.9 mph - N/A   Clear
11:55 PM 30.4 °F - 19.8 °F 65% 30.12 in 10.0 mi Calm Calm - N/A   Clear